Location: Wojcin
(51.3330°N, 20.0330°E)
Time: 22:29:39
(UTC+01:00)

ISS - Visible Passes

Search period start: 30 November 2022 00:00
Search period end: 10 December 2022 00:00
Orbit: 415 x 420 km, 51.6° (Epoch: 30 November)

Date Brightness Start Highest point End Pass type
(mag) Time Alt. Az. Time Alt. Az. Time Alt. Az.
30 Nov -3.8 17:04:01 10° W 17:07:23 89° N 17:09:12 25° E visible
30 Nov -1.1 18:40:51 10° W 18:42:09 20° W 18:42:09 20° W visible
01 Dec -3.8 16:15:59 10° W 16:19:22 83° N 16:22:43 10° E visible
01 Dec -3.2 17:52:49 10° W 17:56:05 51° SSW 17:56:13 51° SSW visible
02 Dec -3.5 17:04:47 10° W 17:08:07 67° SSW 17:10:23 19° ESE visible
02 Dec -0.9 18:41:57 10° W 18:43:19 17° WSW 18:43:19 17° WSW visible
03 Dec -3.7 16:16:46 10° W 16:20:08 81° SSW 16:23:29 10° ESE visible
03 Dec -2.0 17:53:43 10° W 17:56:38 28° SSW 17:57:38 23° S visible
04 Dec -2.4 17:05:35 10° W 17:08:45 39° SSW 17:11:53 10° SE visible
05 Dec -2.9 16:17:32 10° W 16:20:49 52° SSW 16:24:05 10° SE visible
05 Dec -0.8 17:55:10 10° WSW 17:57:02 14° SW 17:58:54 10° S visible
06 Dec -1.1 17:06:40 10° W 17:09:14 20° SW 17:11:47 10° SSE visible
07 Dec -1.6 16:18:26 10° W 16:21:23 29° SSW 16:24:19 10° SSE visible
09 Dec -0.5 16:19:51 10° WSW 16:21:47 15° SW 16:23:43 10° S visible
